[[{"header":{"parameterUnit":"m.s-1","parameterCategory":1,"la1":30.2992,"la2":30.254,"lo1":-89.0895,"lo2":-89.0443,"dy":0.0025,"dx":0.0025,"nx":19,"ny":19,"refTime":"2026-05-13T21:00:00:Z","depth":0,"parameterNumber":2,"parameterNumberName":"U-component_of_WINDS"},"data":[0,0,0,0.6283,0.6285,0.6377,0.6377,0.6495,0.6496,0,0,0,0,0,0,0,0,0,0,0,0.6253,0.6254,0.6282,0.6285,0.6376,0.6377,0.6495,0.6496,0,0,0,0,0,0,0,0,0,0,0,0.6253,0.6254,0.6255,0.6285,0.6376,0.6377,0.6494,0.6425,0,0,0,0,0,0,0,0,0,0,0.6336,0.6307,0.6254,0.6255,0.6286,0.6376,0.6377,0.6422,0.643,0.6453,0,0.6471,0,0.6485,0.6504,0.6504,0,0,0,0.6287,0.63,0.6327,0.6255,0.6286,0.6376,0.6336,0.6426,0.6435,0.6463,0.6472,0.6477,0.6487,0.6504,0.6505,0.6629,0.6629,0,0,0.6281,0.6269,0.6321,0.6332,0.6316,0.6333,0.6338,0.6432,0.6442,0.6473,0.648,0.6489,0.6505,0.6506,0.6628,0.6629,0,0,0,0.6266,0.6265,0.629,0.6327,0.6344,0.6335,0.6342,0.6438,0.6447,0.6481,0.649,0.6506,0.6507,0.6628,0.6629,0.6641,0,0,0,0.6263,0.6256,0.6287,0.6281,0.6342,0.6391,0.6346,0.644,0.6451,0.649,0.6506,0.6508,0.6627,0.6628,0.664,0.6649,0,0,0,0.6248,0.6255,0.6267,0.628,0.6319,0.639,0.6405,0.6443,0.6457,0.6504,0.6509,0.6627,0.6628,0.6638,0.6647,0.6679,0,0,0,0.6229,0.6276,0.6267,0.6324,0.6318,0.6397,0.6404,0.6464,0.6505,0.6506,0.6627,0.6629,0.6638,0.6646,0.6678,0.6704,0.6713,0,0,0.6281,0.6282,0.6316,0.6311,0.6388,0.6384,0.6464,0.6514,0.6531,0.6596,0.6599,0.664,0.6647,0.6679,0.6772,0.6779,0,0,0,0.6329,0.6353,0.6377,0.6416,0.6455,0.6491,0.653,0.655,0.6606,0.6561,0.6661,0.6665,0.6684,0.6698,0.6704,0.6722,0.6634,0.6634,0.6634,0.6384,0.6403,0.6462,0.6493,0.6531,0.6573,0.6606,0.664,0.6647,0.6671,0.669,0.6744,0.6759,0.6764,0.6783,0.6705,0.6705,0.6706,0.6706,0.6463,0.6501,0.6512,0.6572,0.6593,0.6646,0.6689,0.6693,0.6747,0.673,0.6748,0.6729,0.6771,0.6789,0.6707,0.6706,0.6706,0.6706,0.6706,0.6501,0.6523,0.6546,0.6606,0.6652,0.6683,0.6734,0.6751,0.6768,0.6786,0.6809,0.6809,0.6812,0.6796,0.6796,0.6796,0.6796,0.6796,0.6797,0.6531,0.6557,0.6597,0.6645,0.6675,0.6715,0.6761,0.6791,0.6828,0.6837,0.6838,0.6844,0.6772,0.6754,0.68,0.6799,0.6799,0.6798,0.6798,0.6603,0.6591,0.6652,0.6682,0.6742,0.6788,0.681,0.687,0.6898,0.6923,0.6927,0.6871,0.6872,0.6867,0.6853,0.6921,0.6921,0.6921,0.6921,0.6636,0.6639,0.6707,0.6754,0.6802,0.6829,0.6902,0.6939,0.6976,0.6995,0.6988,0.697,0.6964,0.6969,0.6962,0.6949,0.7041,0.7041,0.7041,0.6682,0.6691,0.6748,0.6783,0.6833,0.6876,0.6945,0.7001,0.704,0.7046,0.7011,0.7006,0.6977,0.6966,0.697,0.6958,0.6934,0,0]},{"header":{"parameterUnit":"m.s-1","parameterCategory":1,"la1":30.2992,"la2":30.254,"lo1":-89.0895,"lo2":-89.0443,"dy":0.0025,"dx":0.0025,"nx":19,"ny":19,"refTime":"2026-05-13T21:00:00:Z","depth":0,"parameterNumber":3,"parameterNumberName":"V-component_of_WINDS"},"data":[0,0,0,-1.308,-1.3079,-1.3032,-1.3032,-1.2944,-1.2943,0,0,0,0,0,0,0,0,0,0,0,-1.3079,-1.3078,-1.308,-1.3078,-1.3032,-1.3032,-1.2944,-1.2943,0,0,0,0,0,0,0,0,0,0,0,-1.3079,-1.3078,-1.3077,-1.3078,-1.3032,-1.3032,-1.2945,-1.2989,0,0,0,0,0,0,0,0,0,0,-1.3039,-1.3024,-1.3078,-1.3077,-1.3078,-1.3032,-1.3032,-1.2992,-1.2986,-1.2954,0,-1.2923,0,-1.2932,-1.2936,-1.2935,0,0,0,-1.3089,-1.3029,-1.303,-1.3077,-1.3077,-1.3032,-1.3056,-1.2989,-1.2983,-1.2947,-1.2922,-1.292,-1.293,-1.2935,-1.2934,-1.2717,-1.2715,0,0,-1.3091,-1.3062,-1.3034,-1.3025,-1.3033,-1.3057,-1.3054,-1.2986,-1.2956,-1.2922,-1.2918,-1.2929,-1.2934,-1.2933,-1.2718,-1.2716,0,0,0,-1.3092,-1.3063,-1.3067,-1.3028,-1.3022,-1.3056,-1.3052,-1.2959,-1.2963,-1.2917,-1.2928,-1.2934,-1.2932,-1.272,-1.2717,-1.2612,0,0,0,-1.3094,-1.3064,-1.3067,-1.3049,-1.3023,-1.299,-1.3027,-1.2968,-1.2961,-1.2928,-1.2934,-1.2931,-1.2722,-1.2719,-1.2618,-1.2565,0,0,0,-1.3087,-1.3063,-1.3052,-1.3047,-1.3027,-1.2992,-1.2992,-1.2967,-1.2967,-1.2935,-1.2931,-1.2723,-1.2719,-1.2624,-1.2575,-1.2496,0,0,0,-1.307,-1.2959,-1.3049,-1.2929,-1.3027,-1.293,-1.2993,-1.2922,-1.2883,-1.2933,-1.2721,-1.2718,-1.2626,-1.2581,-1.2502,-1.242,-1.2385,0,0,-1.2913,-1.2939,-1.2871,-1.295,-1.2829,-1.2939,-1.2802,-1.2794,-1.2817,-1.2748,-1.2743,-1.2616,-1.2575,-1.2497,-1.2207,-1.2179,0,0,0,-1.281,-1.276,-1.2735,-1.2697,-1.2689,-1.2677,-1.2693,-1.269,-1.2633,-1.2777,-1.257,-1.2547,-1.2502,-1.2464,-1.244,-1.2401,-1.2701,-1.2701,-1.2701,-1.2541,-1.2579,-1.2467,-1.2499,-1.2462,-1.248,-1.2452,-1.245,-1.25,-1.245,-1.2427,-1.2248,-1.2202,-1.2185,-1.2143,-1.2393,-1.2392,-1.2392,-1.2392,-1.2309,-1.2241,-1.2312,-1.2228,-1.2268,-1.2197,-1.2211,-1.2248,-1.2185,-1.2268,-1.223,-1.2312,-1.2152,-1.2118,-1.2384,-1.2386,-1.2386,-1.2387,-1.2388,-1.2132,-1.2106,-1.2106,-1.2055,-1.2011,-1.2049,-1.1985,-1.2026,-1.2063,-1.2026,-1.2004,-1.2006,-1.2008,-1.2014,-1.2014,-1.2013,-1.2012,-1.2012,-1.2012,-1.1944,-1.1949,-1.1892,-1.1875,-1.1856,-1.1835,-1.1854,-1.1835,-1.1824,-1.1857,-1.1857,-1.1907,-1.2133,-1.2185,-1.2002,-1.2003,-1.2005,-1.2006,-1.2006,-1.1684,-1.175,-1.1661,-1.1642,-1.1625,-1.1577,-1.1632,-1.1589,-1.158,-1.1547,-1.1608,-1.177,-1.1797,-1.1817,-1.1859,-1.1603,-1.1603,-1.1603,-1.1603,-1.1529,-1.155,-1.1468,-1.1433,-1.1405,-1.1446,-1.134,-1.1354,-1.1378,-1.1374,-1.1419,-1.1482,-1.15,-1.1517,-1.1543,-1.1583,-1.1262,-1.1262,-1.1261,-1.1369,-1.1389,-1.1291,-1.1319,-1.131,-1.1299,-1.1201,-1.1156,-1.1198,-1.1248,-1.137,-1.1385,-1.1487,-1.1519,-1.1564,-1.1604,-1.1679,0,0]}]]